sat.trackr.live / text

‹ back to catalog

STARLINK-35725

NORAD 67565 · 2026-016E

PAYLOAD ACTIVE UNKNOWN

§ Identity

Operator
Country
US
Launch date
2026-01-25
Launch site
AFWTR
Launch vehicle
Mass (kg)
RCS (m²)

Purposes: comms

External: N2YO · Heavens-Above · Gunter

§ Orbital elements

Epoch: 2026-05-25T02:28:01.720416Z

Period
93.91 min
Inclination
97.2843°
Eccentricity
0.0000279
Mean motion
15.33450400 rev/d
Perigee alt
465.3 km
Apogee alt
465.7 km
Semi-major
6,843.7 km
B*
3.2848e-4
RAAN
205.4184°
Arg perigee
135.8825°
Mean anomaly
224.2440°
Rev number
1,857

§ Raw data

STARLINK-357251 67565U 26016E   26145.10279769  .00010546  00000+0  32848-3 0  99962 67565  97.2843 205.4184 0000279 135.8825 224.2440 15.33450400 18572

JSON: /api/v1/satellites/67565 · /tle

For live sub-satellite position, see the globe view (requires WebGL).

§ Visibility from observer

Set your observer location to see the next 7 days of passes ≥ 10°. The values pass through the URL so the page stays shareable.

No JS? Fill the form by hand. The geolocation button needs JavaScript.